Regional Weather Roundup
Issued by NWS

Current Version | Previous Version | Text Only | Print | Product List | Glossary On
Versions: 1 2 3 4 5 6 7 8 9 10 11 12 13 14 15 16 17 18 19 20 21 22 23 24 25 26 27 28 29 30 31 32 33 34 35 36 37 38 39 40 41 42 43 44 45 46 47 48 49 50
000
ASUS42 KTBW 041017
RWRFL
FLORIDA REGIONAL WEATHER ROUNDUP
NATIONAL WEATHER SERVICE TAMPA BAY RUSKIN FL
600 AM EDT FRI SEP 04 2015

NOTE: "FAIR" INDICATES FEW OR NO CLOUDS BELOW 12,000 FEET WITH NO
SIGNIFICANT WEATHER AND/OR OBSTRUCTIONS TO VISIBILITY.


FLZ001>010-012>015-112-114-115-041100-
PANHANDLE FLORIDA

CITY           SKY/WX    TMP DP  RH WIND       PRES   REMARKS
PENSACOLA      CLEAR     75  73  93 CALM      29.97R
MILTON NAS     CLEAR     70  70 100 N3        29.98  FOG
CRESTVIEW      CLEAR     70  69  97 CALM      29.99R FOG
DUKE FIELD     FAIR      71  70  95 CALM      29.97R
VALPARAISO     MOCLDY    74  72  93 N3        29.97R
MARY ESTHER    CLOUDY    74  71  91 NE5       29.96R
PANAMA CITY    FAIR      73  72  96 NW5       29.96R
TYNDALL AFB    PTCLDY    77  75  96 N3        29.96R
APALACHICOLA   MOCLDY    73  73 100 CALM      29.96R

STATION/POSITION SKY/WX   TEMP    WIND        PRES    WAVE   SWELL
                          AIR SEA DIR/SP/G            HT/PER HT/PER
                          (F)     (DEG/KT/KT) (MB)    (FT/S) (FT/S)
30.1N   87.6W              83 85  240/  4/  6 1013.9R   1/ 4   2/ 5
29.2N   88.2W              82 84  200/  4/  6 1014.7R   1/ 5   2/ 5
28.8N   86.0W              83 86  310/  6/  8 1015.0R   1/ 5   2/ 5
PANAMA CITY BEAC           77 85  350/  6/  8 1014.1R
CAPE SAN BLAS    NOT AVBL
TOWER C                    83     310/  7/  8 1014.5R
28.5N   84.5W              84 85  280/  8/ 10 1014.4R   1/ 4

$$
FLZ011-016>038-118-127-128-134-139-239-041100-
NORTH FLORIDA

CITY           SKY/WX    TMP DP  RH WIND       PRES   REMARKS
MARIANNA       CLEAR     71  71 100 CALM      29.96R
TALLAHASSEE    PTCLDY    73  70  90 NW3       29.95S
PERRY          MOCLDY    76  73  93 CALM      29.95S
CROSS CITY       N/A     78  74  87 CALM      29.94R
LAKE CITY      FAIR      75  73  94 CALM      29.94S
GAINESVILLE    CLOUDY    77  75  93 NW3       29.94R
MAYPORT NAS    PTCLDY    80  78  94 CALM      29.92R
JACKSONVILLE   PTCLDY    75  75 100 CALM      29.92R FOG
JAX NAS        MOCLDY    82  75  79 NW3       29.93R
JAX CRAIG      PTCLDY    77  75  93 CALM      29.92R
JAX CECIL      CLEAR     75  75 100 CALM      29.93R
FERNANDINA BEA FAIR      79  77  94 CALM      29.91S
ST AUGUSTINE   MOCLDY    78  76  93 W3        29.93R

STATION/POSITION SKY/WX   TEMP    WIND        PRES    WAVE   SWELL
                          AIR SEA DIR/SP/G            HT/PER HT/PER
                          (F)     (DEG/KT/KT) (MB)    (FT/S) (FT/S)
SHELL POINT                75     310/  2/  4   N/A
KEATON BEACH               79     340/  2/  4 1014.1R
CEDAR KEY                  80     360/  2/  3 1014.5R
FERNANDINA                 80 85  320/  2/  3 1012.5R
30.7N   81.3W                 85                N/A     1/14
MAYPORT                    81 85  270/  4/  4 1013.3R
31.4N   80.9W              82 84  300/  8/ 10 1013.2R   1/ 8   2/ 8
ST AUGUSTINE               78 83  290/  5/  6 1014.0R

$$
FLZ040-043>046-052-053-057-058-063-144-041100-
INTERIOR CENTRAL FLORIDA

CITY           SKY/WX    TMP DP  RH WIND       PRES   REMARKS
OCALA          CLOUDY    77  73  88 NW3       29.94R
THE VILLAGES     N/A     77  75  94 CALM      29.85R
LEESBURG       CLOUDY    77  75  93 CALM      29.95R
SANFORD        PTCLDY    77  73  87 W5        29.93R
ORLANDO EXEC   CLEAR     79  78  97 W3        29.94R
ORLANDO INTL   PTCLDY    78  75  90 W3        29.94R
WINTER HAVEN   MOCLDY    78  77  96 SW3       29.96R
LAKELAND       CLEAR     75  75 100 CALM      29.96R
BARTOW         FAIR      75 N/A N/A CALM      29.96S
OKEECHOBEE       N/A     73  73 100 CALM      29.94S

$$
FLZ041-047-054-059-064-141-147-041100-
EAST CENTRAL FLORIDA

CITY           SKY/WX    TMP DP  RH WIND       PRES   REMARKS
DAYTONA BEACH  PTCLDY    76  75  97 CALM      29.93R
CAPE CANAVERAL CLEAR     78  74  85 W7        29.92R
PATRICK AFB    CLEAR     81  75  82 NW10      29.92S
MELBOURNE      CLEAR     76  75  97 W5        29.93R
VERO BEACH     CLEAR     76  73  91 W6        29.93R
FT PIERCE      CLEAR     75  74  96 W3        29.93R
STUART           N/A     75  72  88 CALM      29.94S

STATION/POSITION SKY/WX   TEMP    WIND        PRES    WAVE   SWELL
                          AIR SEA DIR/SP/G            HT/PER HT/PER
                          (F)     (DEG/KT/KT) (MB)    (FT/S) (FT/S)
28.5N   80.2W              83 86  290/ 12/ 14 1013.2R
28.9N   78.5W              81 85  230/ 16/ 19 1012.1R
TRIDENT PIER               81 87  270/  4/  6 1013.7R
28.4N   80.5W                 85                N/A     1/13
27.5N   80.2W                 83                N/A     1/13

$$
FLZ050-056-061-142-242-148-248-149-249-151-251-155-255-
160-260-041100-
WEST CENTRAL FLORIDA

CITY           SKY/WX    TMP DP  RH WIND       PRES   REMARKS
CRYSTAL RIVER  FAIR      79  75  89 CALM      29.95R
INVERNESS      FAIR      75  75 100 CALM      29.95R FOG
BROOKSVILLE    PTCLDY    76  74  93 CALM      29.95R
CLEARWATER     CLEAR     78  75  90 CALM      29.94S
TAMPA INTL     PTCLDY    81  75  82 CALM      29.95R
TAMPA EXEC     PTCLDY    77  73  88 CALM      29.95S FOG
PLANT CITY     CLEAR     77  77 100 CALM      29.97S
MACDILL AFB    CLEAR     80  80 100 NW2       29.94S
PETER O KNIGHT CLEAR     81  79  94 CALM      29.95R
ST PETERSBURG  CLEAR     84  75  74 NW3       29.93R
SARASOTA       CLEAR     77  75  93 CALM      29.93S
VENICE         FAIR      77  77 100 E3        29.95F

STATION/POSITION SKY/WX   TEMP    WIND        PRES    WAVE   SWELL
                          AIR SEA DIR/SP/G            HT/PER HT/PER
                          (F)     (DEG/KT/KT) (MB)    (FT/S) (FT/S)
CEDAR KEY                  80     360/  2/  3 1014.5R
28.5N   84.5W              84 85  280/  8/ 10 1014.4R   1/ 4
27.3N   84.2W                 87                N/A     1/ 7
CLEARWATER BEACH           85 87  300/  7/  9 1013.9R
MIDDLE TAMPA BAY                  350/  6/  8 1014.1R
VENICE                     80 87   60/  4/  4 1013.7S

$$
FLZ066-069-070-075>078-162-262-165-265-041100-
SOUTHWEST FLORIDA AND KEYS

CITY           SKY/WX    TMP DP  RH WIND       PRES   REMARKS
PUNTA GORDA    CLEAR     78  77  96 CALM      29.96S
FT MYERS       CLEAR     80  76  87 N5        29.94S
SOUTHWEST INTL PTCLDY    80  75  84 CALM      29.94S
NAPLES         PTCLDY    79  75  87 CALM      29.94S
MARCO ISLAND   PTSUNNY   79  73  83 CALM      29.94R
MARATHON       PTCLDY    82  76  81 CALM      29.93S
KEY WEST NAS   PTCLDY    82  75  79 CALM      29.94R
KEY WEST INTL  CLEAR     84  75  74 CALM      29.94R

STATION/POSITION SKY/WX   TEMP    WIND        PRES    WAVE   SWELL
                          AIR SEA DIR/SP/G            HT/PER HT/PER
                          (F)     (DEG/KT/KT) (MB)    (FT/S) (FT/S)
VENICE                     80 87   60/  4/  4 1013.7S
NAPLES           NOT AVBL
26.0N   85.6W              84 87   60/  2/  2 1014.1R   1/ 6   2/ 6
DRY TORTUGAS                                    N/A
NW FL BAY                  85     250/  1/  2 1013.4
SAND KEY                   84        CALM     1013.7R
LONG KEY                   85 89  210/  6/  7 1014.4R
MOLASSES REEF              84 87  270/  1/  3 1013.7R

$$
FLZ067-068-071>074-168-172>174-041100-
SOUTHEAST FLORIDA

CITY           SKY/WX    TMP DP  RH WIND       PRES   REMARKS
W PALM BEACH   PTCLDY    77  75  93 SW3       29.95R
FT LAUDER-EXEC CLEAR     79  73  82 CALM      29.94R
FT LAUDERDALE  PTCLDY    79  74  84 NW5       29.94R
POMPANO BEACH  CLEAR     79  72  79 W3        29.94R
PEMBROKE PINES PTCLDY    78  73  84 NW5       29.96R
OPA LOCKA      PTCLDY    79  74  84 NW6       29.95R
MIAMI          PTCLDY    80  75  84 NW3       29.94R
WEST KENDALL   CLEAR     73  73 100 NW7       29.94R
HOMESTEAD      CLEAR     78  74  87 NW2       29.93R

STATION/POSITION SKY/WX   TEMP    WIND        PRES    WAVE   SWELL
                          AIR SEA DIR/SP/G            HT/PER HT/PER
                          (F)     (DEG/KT/KT) (MB)    (FT/S) (FT/S)
PORT EVERGLADES            82     300/  5/  6 1013.8R
VIRGINIA KEY               83 87  210/  4/  6 1012.9R
LAKE WORTH                 79 87  250/  5/  6 1013.1R
FOWEY ROCKS                84 86  180/  6/  7 1013.6R
SETTLEMENT POINT           84     250/  9/ 11 1014.5R

$$




USA.gov is the U.S. government's official web portal to all federal, state and local government web resources and services.